カタログに戻る

SATMAR

運用中通信SSO
NORAD 64551·PAYLOAD·🇪🇸 Spain

打ち上げ Jun 23, 2025 から Vandenberg Space Force Base

Loading…

次のパス (今後24時間)

TLE

最新Source: Space-Track

元期: Sep 13, 2026, 19:10 UTC

1 64551U 25135Z   26256.79910371  .00005841  00000-0  22945-3 0  9998
2 64551  97.4698  12.3578 0000793  46.8594 313.2710 15.26086203 68438

AllMySatでSATMARをリアルタイム追跡

Download on the App Store